TimeCDT,TemperatureF,Dew PointF,Humidity,Sea Level PressureIn,VisibilityMPH,Wind Direction,Wind SpeedMPH,Gust SpeedMPH,PrecipitationIn,Events,Conditions,WindDirDegrees,DateUTC
12:15 AM,63.0,54.1,73,29.88,10.0,Calm,Calm,-,N/A,,Scattered Clouds,0,2013-05-18 05:15:00
12:35 AM,63.3,54.0,71,29.87,10.0,ESE,5.8,-,N/A,,Clear,120,2013-05-18 05:35:00
12:55 AM,62.8,54.1,73,29.87,10.0,SE,6.9,-,N/A,,Clear,130,2013-05-18 05:55:00
1:15 AM,62.6,54.7,75,29.86,10.0,ESE,6.9,-,N/A,,Clear,120,2013-05-18 06:15:00
1:35 AM,63.5,53.8,71,29.87,10.0,SE,8.1,-,N/A,,Clear,140,2013-05-18 06:35:00
1:55 AM,63.7,53.6,70,29.80,10.0,ESE,20.7,-,N/A,,Scattered Clouds,120,2013-05-18 06:55:00
2:15 AM,63.9,52.9,67,29.76,10.0,SE,27.6,33.4,N/A,Thunderstorm,Scattered Clouds,130,2013-05-18 07:15:00
2:35 AM,65.1,52.7,64,29.79,10.0,SE,17.3,-,N/A,Thunderstorm,Thunderstorm,130,2013-05-18 07:35:00
2:55 AM,65.3,52.7,64,29.80,10.0,SE,16.1,-,N/A,,Clear,130,2013-05-18 07:55:00
3:15 AM,66.2,53.2,63,29.80,10.0,SE,16.1,-,N/A,,Clear,140,2013-05-18 08:15:00
3:35 AM,65.3,53.2,65,29.83,10.0,SE,8.1,-,N/A,,Clear,140,2013-05-18 08:35:00
3:55 AM,64.4,53.6,68,29.87,10.0,North,6.9,-,N/A,,Mostly Cloudy,10,2013-05-18 08:55:00
4:15 AM,64.6,54.0,68,29.85,10.0,East,8.1,-,N/A,Thunderstorm,Thunderstorm,90,2013-05-18 09:15:00
4:35 AM,63.9,54.3,71,29.84,10.0,ENE,8.1,-,N/A,,Mostly Cloudy,70,2013-05-18 09:35:00
4:55 AM,63.5,55.2,74,29.86,10.0,ENE,6.9,-,N/A,Thunderstorm,Mostly Cloudy,60,2013-05-18 09:55:00
5:15 AM,64.0,55.8,74,29.87,10.0,ENE,5.8,-,N/A,,Mostly Cloudy,60,2013-05-18 10:15:00
5:35 AM,63.3,55.6,76,29.87,10.0,ENE,8.1,-,N/A,,Mostly Cloudy,60,2013-05-18 10:35:00
5:55 AM,63.1,55.4,76,29.87,10.0,ENE,10.4,-,N/A,,Overcast,60,2013-05-18 10:55:00
6:15 AM,63.7,55.6,75,29.87,10.0,ENE,11.5,16.1,N/A,,Overcast,60,2013-05-18 11:15:00
6:35 AM,63.9,55.6,74,29.87,10.0,ENE,10.4,-,N/A,,Overcast,70,2013-05-18 11:35:00
6:55 AM,63.1,56.7,79,29.85,10.0,East,10.4,-,N/A,,Light Drizzle,80,2013-05-18 11:55:00
7:15 AM,63.1,56.1,78,29.85,10.0,East,12.7,16.1,N/A,,Overcast,90,2013-05-18 12:15:00
7:35 AM,63.5,55.6,75,29.85,10.0,ENE,8.1,-,N/A,,Overcast,70,2013-05-18 12:35:00
7:55 AM,63.5,55.6,75,29.87,10.0,ENE,10.4,-,N/A,,Overcast,60,2013-05-18 12:55:00
8:15 AM,63.5,55.6,75,29.87,10.0,ENE,15.0,19.6,N/A,,Overcast,60,2013-05-18 13:15:00
8:35 AM,64.0,55.6,74,29.85,10.0,ENE,11.5,-,N/A,,Overcast,70,2013-05-18 13:35:00
8:55 AM,64.4,55.8,73,29.86,10.0,ENE,11.5,18.4,N/A,,Overcast,70,2013-05-18 13:55:00
9:15 AM,64.4,56.3,75,29.85,10.0,East,15.0,-,N/A,,Overcast,80,2013-05-18 14:15:00
9:35 AM,64.6,56.8,76,29.85,10.0,East,15.0,-,N/A,,Overcast,90,2013-05-18 14:35:00
9:55 AM,65.3,57.6,76,29.85,10.0,East,15.0,-,N/A,,Overcast,100,2013-05-18 14:55:00
10:15 AM,65.3,57.9,77,29.85,10.0,East,13.8,-,N/A,,Overcast,90,2013-05-18 15:15:00
10:35 AM,66.0,58.3,76,29.83,10.0,East,16.1,-,N/A,,Overcast,90,2013-05-18 15:35:00
10:55 AM,66.4,59.2,78,29.83,10.0,East,16.1,-,N/A,,Overcast,90,2013-05-18 15:55:00
11:15 AM,67.3,59.4,76,29.83,10.0,East,13.8,19.6,N/A,,Overcast,80,2013-05-18 16:15:00
11:35 AM,67.5,59.9,77,29.83,10.0,East,11.5,17.3,N/A,,Overcast,80,2013-05-18 16:35:00
11:55 AM,67.8,60.4,77,29.83,10.0,East,12.7,-,N/A,,Overcast,80,2013-05-18 16:55:00
12:15 PM,68.9,60.4,74,29.83,10.0,East,15.0,-,N/A,,Overcast,90,2013-05-18 17:15:00
12:35 PM,70.0,61.0,73,29.82,10.0,ENE,9.2,-,N/A,,Overcast,70,2013-05-18 17:35:00
12:55 PM,72.0,61.2,69,29.80,10.0,East,13.8,-,N/A,,Mostly Cloudy,100,2013-05-18 17:55:00
1:15 PM,74.7,60.4,61,29.79,10.0,SE,15.0,-,N/A,,Mostly Cloudy,130,2013-05-18 18:15:00
1:35 PM,76.3,60.8,59,29.78,10.0,SE,18.4,21.9,N/A,,Scattered Clouds,130,2013-05-18 18:35:00
1:55 PM,77.0,60.8,57,29.78,10.0,SE,16.1,23.0,N/A,,Mostly Cloudy,140,2013-05-18 18:55:00
2:15 PM,77.2,60.4,56,29.78,10.0,SSE,15.0,-,N/A,,Scattered Clouds,160,2013-05-18 19:15:00
2:35 PM,77.7,61.3,57,29.78,10.0,SSE,19.6,23.0,N/A,,Mostly Cloudy,160,2013-05-18 19:35:00
2:55 PM,76.5,61.7,60,29.78,10.0,SSE,18.4,25.3,N/A,,Scattered Clouds,160,2013-05-18 19:55:00
3:15 PM,75.6,61.7,62,29.79,10.0,SSE,18.4,-,N/A,,Scattered Clouds,160,2013-05-18 20:15:00
3:35 PM,75.9,62.1,62,29.78,7.0,SE,17.3,-,N/A,,Scattered Clouds,140,2013-05-18 20:35:00
3:55 PM,76.8,61.5,59,29.77,7.0,SSE,15.0,-,N/A,,Clear,160,2013-05-18 20:55:00
4:15 PM,77.0,60.8,57,29.77,10.0,SSE,12.7,-,N/A,,Scattered Clouds,160,2013-05-18 21:15:00
4:35 PM,76.8,60.6,57,29.77,10.0,SSE,12.7,17.3,N/A,,Scattered Clouds,150,2013-05-18 21:35:00
4:55 PM,76.3,61.5,60,29.76,10.0,SE,13.8,19.6,N/A,,Mostly Cloudy,140,2013-05-18 21:55:00
5:15 PM,77.7,61.5,57,29.75,10.0,SE,12.7,-,N/A,,Scattered Clouds,140,2013-05-18 22:15:00
5:35 PM,76.5,61.0,59,29.74,10.0,SE,12.7,-,N/A,,Mostly Cloudy,130,2013-05-18 22:35:00
5:55 PM,75.2,61.3,62,29.74,7.0,ESE,10.4,-,N/A,,Mostly Cloudy,120,2013-05-18 22:55:00
6:15 PM,74.7,62.1,65,29.74,7.0,SE,8.1,-,N/A,,Scattered Clouds,130,2013-05-18 23:15:00
6:35 PM,74.5,62.6,66,29.71,7.0,ESE,8.1,-,N/A,,Clear,110,2013-05-18 23:35:00
6:55 PM,74.7,62.6,66,29.71,7.0,ESE,8.1,-,N/A,,Clear,120,2013-05-18 23:55:00
7:15 PM,74.3,62.4,66,29.70,7.0,ESE,12.7,-,N/A,,Clear,110,2013-05-19 00:15:00
7:35 PM,74.3,63.0,68,29.68,7.0,East,13.8,-,N/A,,Clear,100,2013-05-19 00:35:00
7:55 PM,73.8,62.6,68,29.66,7.0,East,13.8,-,N/A,,Clear,100,2013-05-19 00:55:00
8:15 PM,73.2,62.6,69,29.66,7.0,East,11.5,-,N/A,,Clear,100,2013-05-19 01:15:00
8:35 PM,72.5,63.1,72,29.69,7.0,ESE,10.4,-,N/A,,Clear,110,2013-05-19 01:35:00
8:55 PM,72.5,63.1,72,29.69,7.0,ESE,13.8,-,N/A,,Scattered Clouds,110,2013-05-19 01:55:00
9:15 PM,72.3,63.3,73,29.70,7.0,SE,12.7,-,N/A,Rain-Thunderstorm,Rain,140,2013-05-19 02:15:00
9:35 PM,71.1,64.0,78,29.71,7.0,SSE,9.2,-,N/A,Rain-Thunderstorm,Light Thunderstorms and Rain,150,2013-05-19 02:35:00
9:55 PM,70.2,64.8,83,29.69,7.0,SSW,4.6,-,N/A,Rain-Thunderstorm,Light Thunderstorms and Rain,210,2013-05-19 02:55:00
10:15 PM,66.7,57.9,73,29.74,7.0,SW,34.5,48.3,0.02,Rain-Thunderstorm,Thunderstorms and Rain,220,2013-05-19 03:15:00
10:35 PM,58.1,55.2,90,29.77,3.0,WSW,32.2,46.0,0.21,Rain-Thunderstorm,Thunderstorms and Rain,250,2013-05-19 03:35:00
10:55 PM,59.0,55.6,88,29.74,7.0,West,31.1,39.1,0.24,Rain-Thunderstorm,Rain,270,2013-05-19 03:55:00
11:15 PM,59.0,55.8,89,29.72,10.0,WNW,31.1,38.0,0.01,Rain,Rain,290,2013-05-19 04:15:00
11:35 PM,58.3,53.2,83,29.68,10.0,WNW,24.2,40.3,0.01,,Scattered Clouds,300,2013-05-19 04:35:00
11:55 PM,58.6,52.2,79,29.67,10.0,WNW,17.3,31.1,0.01,,Scattered Clouds,300,2013-05-19 04:55:00